This is the latest recevied weather packets stored in our database for station/object K5RWS. If no packets are shown the sender has not sent any weather packets the latest 10 day(s).
| Time | Temp. | Humidity | Pressure | Rain* | Wind** | Luminosity | Snow |
|---|---|---|---|---|---|---|---|
| 1777877444 | 15.56° C | 54% | 1017.4 hPa | 0 mm | - | 0 W/m² | - |
| 1777877141 | 15° C | 54% | 1017.6 hPa | 0 mm | - | 0 W/m² | - |
| 1777876838 | 15° C | 54% | 1017.4 hPa | 0 mm | - | 0 W/m² | - |
| 1777876536 | 15.56° C | 53% | 1017.4 hPa | 0 mm | - | 0 W/m² | - |
| 1777876233 | 15.56° C | 53% | 1017.4 hPa | 0 mm | - | 0 W/m² | - |
| 1777875929 | 15.56° C | 52% | 1017.3 hPa | 0 mm | - | 0 W/m² | - |
| 1777875625 | 15.56° C | 52% | 1017.4 hPa | 0 mm | - | 0 W/m² | - |
| 1777875322 | 16.11° C | 51% | 1017.4 hPa | 0 mm | - | 0 W/m² | - |
| 1777875019 | 16.11° C | 50% | 1017.4 hPa | 0 mm | - | 0 W/m² | - |
| 1777874714 | 16.11° C | 50% | 1017.2 hPa | 0 mm | - | 0 W/m² | - |
| 1777874411 | 16.67° C | 49% | 1017.3 hPa | 0 mm | - | 0 W/m² | - |
| 1777874109 | 16.11° C | 49% | 1017.4 hPa | 0 mm | - | 0 W/m² | - |
| 1777873807 | 16.11° C | 50% | 1017.3 hPa | 0 mm | - | 0 W/m² | - |
| 1777873502 | 16.11° C | 50% | 1017.3 hPa | 0 mm | - | 0 W/m² | - |
| 1777873200 | 16.11° C | 50% | 1017.3 hPa | 0 mm | - | 0 W/m² | - |
| 1777872896 | 15.56° C | 51% | 1017.3 hPa | 0 mm | - | 0 W/m² | - |
| 1777872595 | 15.56° C | 51% | 1017.2 hPa | 0 mm | - | 0 W/m² | - |
| 1777872292 | 15.56° C | 51% | 1017.2 hPa | 0 mm | - | 0 W/m² | - |
| 1777871989 | 15.56° C | 51% | 1017.4 hPa | 0 mm | - | 0 W/m² | - |
| 1777871685 | 16.11° C | 50% | 1017.5 hPa | 0 mm | - | 0 W/m² | - |
| 1777871382 | 16.11° C | 50% | 1017.4 hPa | 0 mm | - | 0 W/m² | - |
| 1777871079 | 16.11° C | 49% | 1017.4 hPa | 0 mm | - | 0 W/m² | - |
| 1777870776 | 16.11° C | 49% | 1017.7 hPa | 0 mm | - | 0 W/m² | - |
| 1777870472 | 16.67° C | 49% | 1017.4 hPa | 0 mm | - | 0 W/m² | - |
| 1777870168 | 16.67° C | 48% | 1017.4 hPa | 0 mm | - | 0 W/m² | - |
* Rain latest hour (hover to see other rain measurements)
** Current wind speed in m/s (hover to see current wind gust speed)